TAM3639 SBCY-SBGR

Flight info

Callsign TAM3639
Flight time 1h 46m
Altitude 35000
Route DIKUN UZ82 ANSOK UZ42 ZARES
Aircraft A321/M-SDE3FGHIRWY/LB1

Departure

Time 2026-04-21 23:03
Airport Várzea Grande–Marechal Rondon International Airport (SBCY)

Arrival

Time 2026-04-22 00:50
Airport São Paulo/Guarulhos–Governor André Franco Montoro International Airport (SBGR)
Time Latitude Longitude Altitude Speed Heading
2026-04-21 22:38 -15.65087 -56.11960 610 ft 0 kts 244°
2026-04-21 22:55 -15.65086 -56.11957 610 ft 2 kts 244°
2026-04-21 22:55 -15.65079 -56.11943 610 ft 1 kts 243°
2026-04-21 22:55 -15.65074 -56.11933 610 ft 2 kts 224°
2026-04-21 22:56 -15.65061 -56.11926 610 ft 2 kts 187°
2026-04-21 22:56 -15.65048 -56.11927 611 ft 0 kts 156°
2026-04-21 22:56 -15.65042 -56.11931 611 ft 1 kts 151°
2026-04-21 22:56 -15.65041 -56.11932 611 ft 0 kts 152°
2026-04-21 22:59 -15.65055 -56.11924 610 ft 6 kts 155°
2026-04-21 22:59 -15.65087 -56.11891 609 ft 7 kts 93°
2026-04-21 22:59 -15.65066 -56.11835 609 ft 9 kts 62°
2026-04-21 22:59 -15.65015 -56.11819 609 ft 8 kts 337°
2026-04-21 23:00 -15.64948 -56.11853 611 ft 14 kts 333°
2026-04-21 23:00 -15.64865 -56.11897 613 ft 12 kts 333°
2026-04-21 23:00 -15.64782 -56.11941 615 ft 16 kts 332°
2026-04-21 23:00 -15.64681 -56.11995 618 ft 15 kts 333°
2026-04-21 23:01 -15.64593 -56.12042 621 ft 12 kts 333°
2026-04-21 23:01 -15.64512 -56.12085 623 ft 13 kts 333°
2026-04-21 23:01 -15.64443 -56.12130 625 ft 10 kts 308°
2026-04-21 23:01 -15.64414 -56.12171 626 ft 4 kts 347°
2026-04-21 23:02 -15.64395 -56.12164 626 ft 2 kts 71°
2026-04-21 23:02 -15.64403 -56.12149 626 ft 3 kts 139°
2026-04-21 23:02 -15.64463 -56.12111 624 ft 30 kts 151°
2026-04-21 23:02 -15.64893 -56.11881 613 ft 106 kts 153°
2026-04-21 23:03 -15.65755 -56.11423 600 ft 168 kts 152°
2026-04-21 23:03 -15.66825 -56.10856 1160 ft 172 kts 152°
2026-04-21 23:03 -15.67885 -56.10292 1544 ft 175 kts 152°
2026-04-21 23:03 -15.69013 -56.09691 1754 ft 188 kts 152°
2026-04-21 23:04 -15.70220 -56.09048 2002 ft 201 kts 151°
2026-04-21 23:04 -15.71510 -56.08362 2260 ft 214 kts 151°
2026-04-21 23:04 -15.72890 -56.07629 2483 ft 231 kts 151°
2026-04-21 23:04 -15.74383 -56.06834 2734 ft 248 kts 151°
2026-04-21 23:05 -15.75953 -56.05999 3035 ft 264 kts 151°
2026-04-21 23:05 -15.77615 -56.05118 3546 ft 270 kts 150°
2026-04-21 23:05 -15.79293 -56.04226 4182 ft 272 kts 151°
2026-04-21 23:05 -15.80981 -56.03329 4813 ft 274 kts 150°
2026-04-21 23:06 -15.82682 -56.02423 5433 ft 276 kts 150°
2026-04-21 23:06 -15.84397 -56.01512 6055 ft 278 kts 150°
2026-04-21 23:06 -15.86125 -56.00594 6681 ft 280 kts 150°
2026-04-21 23:06 -15.87869 -55.99665 7293 ft 283 kts 150°
2026-04-21 23:07 -15.89628 -55.98728 7879 ft 286 kts 150°
2026-04-21 23:07 -15.91375 -55.97730 8449 ft 287 kts 144°
2026-04-21 23:07 -15.92923 -55.96418 9017 ft 288 kts 133°
2026-04-21 23:07 -15.94251 -55.94861 9585 ft 289 kts 128°
2026-04-21 23:08 -15.95529 -55.93250 10111 ft 292 kts 128°
2026-04-21 23:08 -15.96839 -55.91585 10415 ft 304 kts 128°
2026-04-21 23:08 -15.98215 -55.89846 10652 ft 318 kts 128°
2026-04-21 23:08 -15.99652 -55.88039 10931 ft 329 kts 128°
2026-04-21 23:09 -16.01127 -55.86186 11392 ft 334 kts 129°
2026-04-21 23:09 -16.02595 -55.84346 11891 ft 337 kts 129°
2026-04-21 23:09 -16.04096 -55.82466 12383 ft 339 kts 129°
2026-04-21 23:09 -16.05612 -55.80565 12861 ft 342 kts 129°
2026-04-21 23:10 -16.07138 -55.78653 13324 ft 345 kts 129°
2026-04-21 23:10 -16.08679 -55.76723 13774 ft 348 kts 129°
2026-04-21 23:10 -16.10233 -55.74779 14242 ft 350 kts 129°
2026-04-21 23:10 -16.11792 -55.72826 14693 ft 352 kts 129°
2026-04-21 23:11 -16.13359 -55.70861 15115 ft 354 kts 129°
2026-04-21 23:11 -16.14939 -55.68880 15533 ft 357 kts 129°
2026-04-21 23:11 -16.16530 -55.66884 15937 ft 359 kts 129°
2026-04-21 23:11 -16.18129 -55.64877 16342 ft 361 kts 130°
2026-04-21 23:12 -16.19713 -55.62887 16743 ft 363 kts 130°
2026-04-21 23:12 -16.21328 -55.60860 17129 ft 365 kts 130°
2026-04-21 23:12 -16.22954 -55.58817 17508 ft 367 kts 130°
2026-04-21 23:12 -16.24589 -55.56764 17889 ft 369 kts 129°
2026-04-21 23:13 -16.26231 -55.54700 18279 ft 371 kts 129°
2026-04-21 23:13 -16.27880 -55.52627 18675 ft 372 kts 129°
2026-04-21 23:13 -16.29533 -55.50545 19059 ft 374 kts 129°
2026-04-21 23:13 -16.31192 -55.48456 19437 ft 375 kts 129°
2026-04-21 23:14 -16.32861 -55.46353 19775 ft 378 kts 129°
2026-04-21 23:14 -16.34541 -55.44237 20116 ft 380 kts 129°
2026-04-21 23:14 -16.36228 -55.42113 20484 ft 381 kts 129°
2026-04-21 23:14 -16.37877 -55.39946 20833 ft 383 kts 127°
2026-04-21 23:15 -16.39417 -55.37673 21180 ft 384 kts 124°
2026-04-21 23:15 -16.40900 -55.35400 21519 ft 385 kts 124°
2026-04-21 23:15 -16.42416 -55.33062 21847 ft 387 kts 124°
2026-04-21 23:15 -16.43925 -55.30733 22167 ft 389 kts 124°
2026-04-21 23:16 -16.45440 -55.28395 22474 ft 390 kts 124°
2026-04-21 23:16 -16.46962 -55.26045 22772 ft 392 kts 124°
2026-04-21 23:16 -16.48490 -55.23685 23071 ft 394 kts 124°
2026-04-21 23:16 -16.50005 -55.21345 23344 ft 396 kts 124°
2026-04-21 23:17 -16.51547 -55.18963 23621 ft 398 kts 124°
2026-04-21 23:17 -16.53097 -55.16569 23903 ft 399 kts 124°
2026-04-21 23:17 -16.54651 -55.14167 24180 ft 401 kts 124°
2026-04-21 23:17 -16.56211 -55.11755 24450 ft 402 kts 124°
2026-04-21 23:18 -16.57778 -55.09331 24707 ft 404 kts 124°
2026-04-21 23:18 -16.59350 -55.06900 24970 ft 405 kts 124°
2026-04-21 23:18 -16.60929 -55.04456 25207 ft 407 kts 124°
2026-04-21 23:18 -16.62514 -55.02004 25460 ft 408 kts 124°
2026-04-21 23:19 -16.64107 -54.99537 25708 ft 410 kts 124°
2026-04-21 23:19 -16.65701 -54.97067 25947 ft 411 kts 124°
2026-04-21 23:19 -16.67278 -54.94623 26180 ft 413 kts 124°
2026-04-21 23:19 -16.68883 -54.92135 26416 ft 414 kts 124°
2026-04-21 23:20 -16.70493 -54.89639 26652 ft 415 kts 124°
2026-04-21 23:20 -16.72106 -54.87135 26886 ft 416 kts 124°
2026-04-21 23:20 -16.73724 -54.84626 27121 ft 417 kts 124°
2026-04-21 23:20 -16.75347 -54.82108 27349 ft 419 kts 124°
2026-04-21 23:21 -16.76973 -54.79583 27568 ft 420 kts 124°
2026-04-21 23:21 -16.78605 -54.77049 27787 ft 421 kts 124°
2026-04-21 23:21 -16.80241 -54.74506 27997 ft 423 kts 124°
2026-04-21 23:21 -16.81881 -54.71956 28211 ft 424 kts 124°
2026-04-21 23:22 -16.83525 -54.69399 28416 ft 425 kts 124°
2026-04-21 23:22 -16.85174 -54.66833 28618 ft 426 kts 124°
2026-04-21 23:22 -16.86827 -54.64261 28835 ft 427 kts 124°
2026-04-21 23:22 -16.88484 -54.61680 29048 ft 428 kts 124°
2026-04-21 23:23 -16.90122 -54.59129 29257 ft 429 kts 124°
2026-04-21 23:23 -16.91785 -54.56538 29473 ft 430 kts 124°
2026-04-21 23:23 -16.93452 -54.53939 29673 ft 431 kts 124°
2026-04-21 23:23 -16.95124 -54.51332 29865 ft 433 kts 124°
2026-04-21 23:24 -16.96800 -54.48717 30064 ft 434 kts 124°
2026-04-21 23:24 -16.98480 -54.46096 30268 ft 435 kts 124°
2026-04-21 23:24 -17.00164 -54.43468 30458 ft 436 kts 124°
2026-04-21 23:24 -17.01852 -54.40832 30626 ft 437 kts 124°
2026-04-21 23:25 -17.03546 -54.38187 30821 ft 438 kts 124°
2026-04-21 23:25 -17.05241 -54.35537 31015 ft 439 kts 124°
2026-04-21 23:25 -17.06929 -54.32898 31192 ft 440 kts 124°
2026-04-21 23:25 -17.08630 -54.30236 31425 ft 440 kts 124°
2026-04-21 23:26 -17.10333 -54.27572 31711 ft 439 kts 124°
2026-04-21 23:26 -17.12018 -54.24933 32002 ft 437 kts 124°
2026-04-21 23:26 -17.13702 -54.22294 32288 ft 436 kts 124°
2026-04-21 23:26 -17.15381 -54.19662 32559 ft 435 kts 124°
2026-04-21 23:27 -17.17057 -54.17033 32813 ft 435 kts 124°
2026-04-21 23:27 -17.18732 -54.14405 33080 ft 434 kts 124°
2026-04-21 23:27 -17.20403 -54.11781 33361 ft 433 kts 124°
2026-04-21 23:27 -17.22073 -54.09158 33573 ft 434 kts 124°
2026-04-21 23:28 -17.23747 -54.06528 33738 ft 435 kts 124°
2026-04-21 23:28 -17.25404 -54.03925 33911 ft 436 kts 124°
2026-04-21 23:28 -17.27106 -54.01294 34090 ft 437 kts 126°
2026-04-21 23:28 -17.28933 -53.98739 34292 ft 437 kts 129°
2026-04-21 23:29 -17.30882 -53.96299 34480 ft 437 kts 132°
2026-04-21 23:29 -17.32956 -53.93972 34665 ft 437 kts 135°
2026-04-21 23:29 -17.35149 -53.91759 34827 ft 438 kts 137°
2026-04-21 23:29 -17.37391 -53.89594 34983 ft 438 kts 137°
2026-04-21 23:30 -17.41923 -53.85245 35046 ft 445 kts 138°
2026-04-21 23:30 -17.46465 -53.80882 35049 ft 446 kts 138°
2026-04-21 23:31 -17.51040 -53.76478 35054 ft 446 kts 138°
2026-04-21 23:31 -17.55616 -53.72069 35056 ft 447 kts 138°
2026-04-21 23:32 -17.60194 -53.67656 35051 ft 447 kts 138°
2026-04-21 23:32 -17.64776 -53.63233 35052 ft 448 kts 138°
2026-04-21 23:33 -17.69356 -53.58809 35062 ft 447 kts 138°
2026-04-21 23:33 -17.73898 -53.54420 35073 ft 447 kts 138°
2026-04-21 23:34 -17.78469 -53.49999 35076 ft 446 kts 138°
2026-04-21 23:34 -17.83035 -53.45578 35070 ft 447 kts 138°
2026-04-21 23:35 -17.87599 -53.41157 35066 ft 446 kts 138°
2026-04-21 23:35 -17.92166 -53.36731 35062 ft 446 kts 138°
2026-04-21 23:36 -17.96714 -53.32320 35057 ft 448 kts 138°
2026-04-21 23:36 -18.01291 -53.27875 35061 ft 447 kts 138°
2026-04-21 23:37 -18.05857 -53.23441 35066 ft 447 kts 138°
2026-04-21 23:37 -18.10423 -53.19001 35078 ft 446 kts 138°
2026-04-21 23:38 -18.14959 -53.14587 35087 ft 445 kts 138°
2026-04-21 23:38 -18.19504 -53.10161 35098 ft 445 kts 138°
2026-04-21 23:39 -18.24061 -53.05721 35100 ft 447 kts 138°
2026-04-21 23:39 -18.28620 -53.01276 35107 ft 447 kts 138°
2026-04-21 23:40 -18.33182 -52.96825 35100 ft 446 kts 138°
2026-04-21 23:40 -18.37708 -52.92404 35092 ft 446 kts 138°
2026-04-21 23:41 -18.42266 -52.87949 35083 ft 447 kts 138°
2026-04-21 23:41 -18.46825 -52.83490 35079 ft 448 kts 138°
2026-04-21 23:42 -18.51419 -52.78992 35071 ft 452 kts 138°
2026-04-21 23:42 -18.56030 -52.74476 35069 ft 452 kts 138°
2026-04-21 23:43 -18.60641 -52.69954 35067 ft 452 kts 138°
2026-04-21 23:43 -18.65210 -52.65471 35063 ft 451 kts 138°
2026-04-21 23:44 -18.69809 -52.60954 35064 ft 452 kts 138°
2026-04-21 23:44 -18.74414 -52.56427 35061 ft 452 kts 138°
2026-04-21 23:45 -18.81325 -52.49626 35052 ft 452 kts 138°
2026-04-21 23:46 -18.85920 -52.45095 35048 ft 452 kts 138°
2026-04-21 23:46 -18.90520 -52.40559 35049 ft 452 kts 138°
2026-04-21 23:47 -18.95114 -52.36027 35051 ft 451 kts 138°
2026-04-21 23:47 -18.99682 -52.31510 35055 ft 451 kts 138°
2026-04-21 23:48 -19.04266 -52.26967 35059 ft 451 kts 138°
2026-04-21 23:48 -19.08848 -52.22420 35056 ft 451 kts 138°
2026-04-21 23:49 -19.13416 -52.17886 35048 ft 452 kts 138°
2026-04-21 23:49 -19.18003 -52.13328 35041 ft 453 kts 138°
2026-04-21 23:50 -19.22591 -52.08765 35038 ft 452 kts 138°
2026-04-21 23:50 -19.27179 -52.04199 35040 ft 453 kts 138°
2026-04-21 23:51 -19.31775 -51.99618 35041 ft 453 kts 138°
2026-04-21 23:51 -19.36331 -51.95074 35040 ft 453 kts 138°
2026-04-21 23:52 -19.40916 -51.90501 35043 ft 453 kts 138°
2026-04-21 23:52 -19.45495 -51.85927 35049 ft 452 kts 138°
2026-04-21 23:53 -19.50068 -51.81354 35060 ft 452 kts 139°
2026-04-21 23:53 -19.54644 -51.76775 35067 ft 452 kts 139°
2026-04-21 23:54 -19.59223 -51.72186 35067 ft 453 kts 139°
2026-04-21 23:54 -19.63775 -51.67622 35056 ft 453 kts 139°
2026-04-21 23:55 -19.68455 -51.63164 35046 ft 451 kts 142°
2026-04-21 23:55 -19.73271 -51.58894 35041 ft 451 kts 142°
2026-04-21 23:56 -19.78090 -51.54624 35038 ft 451 kts 142°
2026-04-21 23:56 -19.82903 -51.50349 35035 ft 450 kts 142°
2026-04-21 23:57 -19.87710 -51.46073 35032 ft 451 kts 142°
2026-04-21 23:57 -19.92518 -51.41791 35029 ft 450 kts 142°
2026-04-21 23:58 -19.97290 -51.37539 35029 ft 451 kts 142°
2026-04-21 23:58 -20.02106 -51.33243 35029 ft 450 kts 142°
2026-04-21 23:59 -20.06906 -51.28958 35028 ft 450 kts 142°
2026-04-21 23:59 -20.11682 -51.24688 35029 ft 450 kts 142°
2026-04-22 00:00 -20.16480 -51.20393 35025 ft 450 kts 142°
2026-04-22 00:00 -20.21269 -51.16105 35022 ft 449 kts 142°
2026-04-22 00:01 -20.26060 -51.11813 35018 ft 450 kts 142°
2026-04-22 00:01 -20.30851 -51.07527 35021 ft 449 kts 142°
2026-04-22 00:02 -20.35639 -51.03240 35018 ft 450 kts 142°
2026-04-22 00:02 -20.40396 -50.98970 35021 ft 449 kts 142°
2026-04-22 00:03 -20.45179 -50.94672 35029 ft 449 kts 142°
2026-04-22 00:03 -20.49959 -50.90374 35038 ft 449 kts 143°
2026-04-22 00:04 -20.54734 -50.86076 35040 ft 449 kts 143°
2026-04-22 00:04 -20.59508 -50.81772 35041 ft 449 kts 143°
2026-04-22 00:05 -20.64287 -50.77464 35042 ft 449 kts 143°
2026-04-22 00:05 -20.69033 -50.73177 35041 ft 450 kts 143°
2026-04-22 00:06 -20.73810 -50.68856 35041 ft 449 kts 143°
2026-04-22 00:06 -20.78589 -50.64536 35038 ft 450 kts 143°
2026-04-22 00:07 -20.83371 -50.60204 35037 ft 451 kts 142°
2026-04-22 00:07 -20.88155 -50.55856 35037 ft 451 kts 142°
2026-04-22 00:08 -20.92938 -50.51503 35035 ft 451 kts 142°
2026-04-22 00:08 -20.97682 -50.47179 35039 ft 451 kts 142°
2026-04-22 00:09 -21.02463 -50.42817 35044 ft 452 kts 142°
2026-04-22 00:09 -21.07249 -50.38448 35050 ft 452 kts 142°
2026-04-22 00:10 -21.12058 -50.34052 35056 ft 452 kts 142°
2026-04-22 00:10 -21.16823 -50.29694 35061 ft 452 kts 142°
2026-04-22 00:11 -21.21629 -50.25294 35063 ft 452 kts 142°
2026-04-22 00:11 -21.26415 -50.20907 35067 ft 452 kts 142°
2026-04-22 00:12 -21.31197 -50.16521 35067 ft 452 kts 142°
2026-04-22 00:12 -21.35941 -50.12163 35070 ft 452 kts 142°
2026-04-22 00:13 -21.40717 -50.07770 35070 ft 452 kts 142°
2026-04-22 00:13 -21.45505 -50.03370 35071 ft 453 kts 143°
2026-04-22 00:14 -21.50300 -49.98969 35073 ft 452 kts 143°
2026-04-22 00:14 -21.55085 -49.94567 35072 ft 453 kts 143°
2026-04-22 00:15 -21.59872 -49.90157 35065 ft 453 kts 143°
2026-04-22 00:15 -21.64624 -49.85774 35065 ft 453 kts 143°
2026-04-22 00:16 -21.69406 -49.81360 35063 ft 453 kts 143°
2026-04-22 00:16 -21.74184 -49.76943 35065 ft 452 kts 143°
2026-04-22 00:17 -21.78965 -49.72519 35067 ft 453 kts 143°
2026-04-22 00:17 -21.83744 -49.68092 35065 ft 453 kts 143°
2026-04-22 00:18 -21.88526 -49.63657 35060 ft 454 kts 143°
2026-04-22 00:18 -21.93315 -49.59213 35056 ft 454 kts 143°
2026-04-22 00:19 -21.98077 -49.54789 35057 ft 455 kts 143°
2026-04-22 00:19 -22.02700 -49.50100 35050 ft 462 kts 133°
2026-04-22 00:20 -22.06057 -49.44125 35067 ft 469 kts 122°
2026-04-22 00:20 -22.09097 -49.37906 35065 ft 469 kts 122°
2026-04-22 00:21 -22.12167 -49.31697 35060 ft 469 kts 122°
2026-04-22 00:21 -22.15239 -49.25529 35054 ft 469 kts 122°
2026-04-22 00:22 -22.18334 -49.19323 35057 ft 468 kts 123°
2026-04-22 00:22 -22.21423 -49.13121 35067 ft 469 kts 123°
2026-04-22 00:23 -22.24383 -49.06907 35067 ft 470 kts 120°
2026-04-22 00:23 -22.27251 -49.00561 35072 ft 471 kts 121°
2026-04-22 00:24 -22.30171 -48.94245 35076 ft 470 kts 121°
2026-04-22 00:24 -22.33132 -48.87949 35080 ft 470 kts 121°
2026-04-22 00:25 -22.36101 -48.81665 35082 ft 470 kts 122°
2026-04-22 00:25 -22.39055 -48.75418 35084 ft 470 kts 122°
2026-04-22 00:26 -22.42023 -48.69134 35083 ft 470 kts 122°
2026-04-22 00:26 -22.44985 -48.62851 35087 ft 470 kts 122°
2026-04-22 00:27 -22.47986 -48.56578 35087 ft 469 kts 124°
2026-04-22 00:27 -22.51185 -48.50440 35088 ft 469 kts 124°
2026-04-22 00:28 -22.54357 -48.44333 35089 ft 469 kts 124°
2026-04-22 00:28 -22.57537 -48.38174 35088 ft 469 kts 124°
2026-04-22 00:29 -22.60703 -48.32041 35058 ft 464 kts 124°
2026-04-22 00:29 -22.62158 -48.29216 34753 ft 458 kts 124°
2026-04-22 00:29 -22.63714 -48.26194 33938 ft 460 kts 124°
2026-04-22 00:29 -22.65277 -48.23166 32897 ft 465 kts 124°
2026-04-22 00:30 -22.66854 -48.20111 32160 ft 465 kts 123°
2026-04-22 00:30 -22.68415 -48.17072 31688 ft 460 kts 123°
2026-04-22 00:30 -22.69957 -48.14062 31174 ft 456 kts 123°
2026-04-22 00:30 -22.71487 -48.11074 30634 ft 453 kts 123°
2026-04-22 00:31 -22.72989 -48.08146 30075 ft 450 kts 122°
2026-04-22 00:31 -22.74504 -48.05194 29517 ft 448 kts 122°
2026-04-22 00:31 -22.76010 -48.02258 28976 ft 445 kts 122°
2026-04-22 00:31 -22.77508 -47.99335 28438 ft 442 kts 122°
2026-04-22 00:32 -22.78991 -47.96434 27923 ft 439 kts 122°
2026-04-22 00:32 -22.80463 -47.93557 27436 ft 435 kts 121°
2026-04-22 00:32 -22.81921 -47.90701 26936 ft 432 kts 121°
2026-04-22 00:32 -22.83370 -47.87867 26428 ft 429 kts 121°
2026-04-22 00:33 -22.84809 -47.85053 25938 ft 425 kts 121°
2026-04-22 00:33 -22.86235 -47.82266 25448 ft 422 kts 121°
2026-04-22 00:33 -22.87650 -47.79498 24949 ft 419 kts 121°
2026-04-22 00:33 -22.89054 -47.76751 24458 ft 416 kts 121°
2026-04-22 00:34 -22.90427 -47.74059 23987 ft 412 kts 121°
2026-04-22 00:34 -22.91807 -47.71350 23518 ft 409 kts 121°
2026-04-22 00:34 -22.93178 -47.68658 23059 ft 406 kts 121°
2026-04-22 00:34 -22.94537 -47.65987 22612 ft 403 kts 120°
2026-04-22 00:35 -22.95884 -47.63334 22178 ft 400 kts 120°
2026-04-22 00:35 -22.97221 -47.60701 21748 ft 398 kts 121°
2026-04-22 00:35 -22.98550 -47.58083 21318 ft 395 kts 120°
2026-04-22 00:35 -22.99870 -47.55481 20886 ft 393 kts 120°
2026-04-22 00:36 -23.01184 -47.52890 20446 ft 391 kts 120°
2026-04-22 00:36 -23.02490 -47.50314 20022 ft 389 kts 120°
2026-04-22 00:36 -23.03772 -47.47789 19605 ft 386 kts 120°
2026-04-22 00:36 -23.05064 -47.45242 19186 ft 384 kts 120°
2026-04-22 00:37 -23.06346 -47.42710 18772 ft 382 kts 120°
2026-04-22 00:37 -23.07622 -47.40194 18362 ft 379 kts 120°
2026-04-22 00:37 -23.08889 -47.37694 17934 ft 377 kts 120°
2026-04-22 00:37 -23.10154 -47.35193 17529 ft 374 kts 120°
2026-04-22 00:38 -23.11407 -47.32715 17121 ft 371 kts 119°
2026-04-22 00:38 -23.12634 -47.30287 16758 ft 367 kts 119°
2026-04-22 00:38 -23.13872 -47.27833 16370 ft 364 kts 119°
2026-04-22 00:38 -23.15068 -47.25458 15948 ft 362 kts 119°
2026-04-22 00:39 -23.16275 -47.23069 15550 ft 359 kts 119°
2026-04-22 00:39 -23.17468 -47.20702 15187 ft 356 kts 119°
2026-04-22 00:39 -23.18652 -47.18354 14796 ft 353 kts 119°
2026-04-22 00:39 -23.19830 -47.16025 14410 ft 351 kts 120°
2026-04-22 00:40 -23.20998 -47.13713 14029 ft 348 kts 119°
2026-04-22 00:40 -23.22155 -47.11422 13651 ft 345 kts 119°
2026-04-22 00:40 -23.23304 -47.09145 13256 ft 342 kts 119°
2026-04-22 00:40 -23.24442 -47.06887 12874 ft 340 kts 119°
2026-04-22 00:41 -23.25574 -47.04638 12479 ft 338 kts 120°
2026-04-22 00:41 -23.26697 -47.02408 12074 ft 334 kts 119°
2026-04-22 00:41 -23.27792 -47.00230 11583 ft 332 kts 120°
2026-04-22 00:41 -23.28895 -46.98034 11101 ft 329 kts 120°
2026-04-22 00:42 -23.30000 -46.95834 10616 ft 326 kts 120°
2026-04-22 00:42 -23.31067 -46.93710 10133 ft 323 kts 120°
2026-04-22 00:42 -23.32132 -46.91589 9514 ft 318 kts 120°
2026-04-22 00:42 -23.33184 -46.89493 8760 ft 315 kts 120°
2026-04-22 00:43 -23.34232 -46.87409 8045 ft 315 kts 119°
2026-04-22 00:43 -23.35274 -46.85332 7492 ft 311 kts 119°
2026-04-22 00:43 -23.36297 -46.83290 7167 ft 303 kts 119°
2026-04-22 00:43 -23.37291 -46.81303 6995 ft 293 kts 119°
2026-04-22 00:44 -23.38255 -46.79375 6831 ft 285 kts 119°
2026-04-22 00:44 -23.39177 -46.77532 6672 ft 277 kts 118°
2026-04-22 00:44 -23.40088 -46.75712 6516 ft 269 kts 118°
2026-04-22 00:44 -23.40970 -46.73949 6363 ft 261 kts 118°
2026-04-22 00:45 -23.41825 -46.72239 6222 ft 252 kts 118°
2026-04-22 00:45 -23.42660 -46.70590 6092 ft 245 kts 121°
2026-04-22 00:45 -23.43578 -46.69061 5950 ft 238 kts 124°
2026-04-22 00:45 -23.44493 -46.67606 5753 ft 233 kts 124°
2026-04-22 00:46 -23.45408 -46.66159 5554 ft 229 kts 124°
2026-04-22 00:46 -23.46303 -46.64739 5354 ft 225 kts 124°
2026-04-22 00:46 -23.47026 -46.63262 5184 ft 217 kts 104°
2026-04-22 00:46 -23.47028 -46.61676 4969 ft 211 kts 82°
2026-04-22 00:47 -23.46671 -46.60132 4662 ft 205 kts 75°
2026-04-22 00:47 -23.46251 -46.58696 4404 ft 190 kts 74°
2026-04-22 00:47 -23.45870 -46.57374 4131 ft 179 kts 75°
2026-04-22 00:47 -23.45523 -46.56109 3881 ft 168 kts 76°
2026-04-22 00:48 -23.45207 -46.54934 3667 ft 160 kts 76°
2026-04-22 00:48 -23.44894 -46.53770 3483 ft 159 kts 76°
2026-04-22 00:48 -23.44587 -46.52629 3294 ft 158 kts 76°
2026-04-22 00:48 -23.44275 -46.51476 3104 ft 158 kts 76°
2026-04-22 00:49 -23.43965 -46.50325 2883 ft 157 kts 76°
2026-04-22 00:49 -23.43661 -46.49194 2674 ft 156 kts 75°
2026-04-22 00:49 -23.43354 -46.48060 2488 ft 155 kts 75°
2026-04-22 00:49 -23.43068 -46.46993 2469 ft 129 kts 74°
2026-04-22 00:50 -23.42865 -46.46243 2469 ft 80 kts 74°
2026-04-22 00:50 -23.42755 -46.45839 2469 ft 35 kts 74°
2026-04-22 00:50 -23.42662 -46.45633 2469 ft 25 kts 51°
2026-04-22 00:50 -23.42557 -46.45517 2470 ft 19 kts 45°
2026-04-22 00:51 -23.42474 -46.45414 2470 ft 17 kts 60°
2026-04-22 00:51 -23.42436 -46.45295 2470 ft 15 kts 74°
2026-04-22 00:51 -23.42407 -46.45186 2470 ft 14 kts 73°
2026-04-22 00:51 -23.42356 -46.45111 2470 ft 12 kts
2026-04-22 00:52 -23.42319 -46.45176 2470 ft 11 kts 257°
2026-04-22 00:52 -23.42345 -46.45272 2470 ft 16 kts 253°
2026-04-22 00:52 -23.42385 -46.45423 2470 ft 23 kts 254°
2026-04-22 00:52 -23.42431 -46.45589 2470 ft 21 kts 254°
2026-04-22 00:53 -23.42471 -46.45739 2469 ft 19 kts 253°
2026-04-22 00:53 -23.42507 -46.45875 2469 ft 17 kts 253°
2026-04-22 00:53 -23.42541 -46.45999 2469 ft 16 kts 254°
2026-04-22 00:53 -23.42572 -46.46113 2469 ft 14 kts 254°
2026-04-22 00:54 -23.42600 -46.46215 2469 ft 13 kts 254°
2026-04-22 00:54 -23.42625 -46.46308 2469 ft 13 kts 254°
2026-04-22 00:54 -23.42654 -46.46418 2469 ft 16 kts 254°
2026-04-22 00:54 -23.42688 -46.46542 2469 ft 16 kts 253°
2026-04-22 00:55 -23.42718 -46.46653 2469 ft 14 kts 254°
2026-04-22 00:55 -23.42746 -46.46755 2469 ft 13 kts 254°
2026-04-22 00:55 -23.42793 -46.46929 2469 ft 10 kts 254°
2026-04-22 00:56 -23.42815 -46.47011 2469 ft 12 kts 254°
2026-04-22 00:56 -23.42841 -46.47106 2469 ft 12 kts 253°
2026-04-22 00:56 -23.42864 -46.47194 2469 ft 11 kts 253°
2026-04-22 00:56 -23.42885 -46.47272 2469 ft 10 kts 254°
2026-04-22 00:57 -23.42905 -46.47346 2469 ft 10 kts 254°
2026-04-22 00:57 -23.42925 -46.47419 2469 ft 10 kts 253°
2026-04-22 00:57 -23.42945 -46.47492 2469 ft 10 kts 254°
2026-04-22 00:57 -23.42965 -46.47566 2469 ft 10 kts 253°
2026-04-22 00:58 -23.42984 -46.47638 2469 ft 9 kts 254°
2026-04-22 00:58 -23.43005 -46.47714 2469 ft 11 kts 254°
2026-04-22 00:58 -23.43028 -46.47799 2469 ft 11 kts 254°
2026-04-22 00:58 -23.43050 -46.47881 2469 ft 10 kts 253°
2026-04-22 00:59 -23.43070 -46.47955 2469 ft 9 kts 254°
2026-04-22 00:59 -23.43088 -46.48022 2468 ft 8 kts 253°
2026-04-22 00:59 -23.43104 -46.48082 2468 ft 7 kts 254°
2026-04-22 00:59 -23.43084 -46.48124 2468 ft 6 kts 343°
2026-04-22 01:00 -23.43040 -46.48132 2468 ft 6 kts 354°
2026-04-22 01:00 -23.42994 -46.48137 2468 ft 7 kts 354°
2026-04-22 01:00 -23.42954 -46.48168 2468 ft 7 kts 300°
2026-04-22 01:00 -23.42935 -46.48209 2468 ft 3 kts 294°
2026-04-22 01:01 -23.42930 -46.48222 2468 ft 1 kts 295°
2026-04-22 01:01 -23.42929 -46.48224 2468 ft 0 kts 295°